Flag for Azerbaijan Weather past 2 weeks in Ganja, Azerbaijan

Now
84 °F

Passing clouds.


Feels Like: 82 °F
Forecast: 69 / 89 °F
Wind: 8 mph from East

Location: Gyanca Airport

Current Time: Jul 31, 2014 at 9:15:02 PM

Latest Report: Jul 31, 2014 at 8:30 PM


Visibility: N/A

Pressure: 29.86 "Hg

Humidity: 29%

Dew point: 48 °F

Location of GanjaLocation

Historic Weather in Ganja — Graph

°F

Ganja temperature yesterday

Maximum temperature yesterday: 86 °F (at 3:00 PM)
Minimum temperature yesterday: 64 °F (at 6:30 AM)
Average temperature yesterday: 76 °F

Past Weeks' High & Low Weather Summary

 TemperatureHumidityPressure
High99 °F (Jul 27, 3:00 PM)78% (Jul 31, 7:00 AM)30.01 "Hg (Jul 31, 7:00 AM)
Low64 °F (Jul 30, 6:30 AM)11% (Jul 18, 5:00 PM)29.56 "Hg (Jul 19, 6:00 PM)
Average82 °F36%29.80 "Hg
* Reported Jul 16 8:00 PM — Jul 31 8:00 PM, Ganja, Weather by CustomWeather, © 2014

Note: Actual official high and low records may vary slightly from our data, if they occured in-between our weather recording intervals... More about our weather records

Advertising

Ganja weather history for previous 24 hours

 ConditionsComfort  
Time TempWeatherWind HumidityBarometerVisibility
8:00 PM
Jul 31
86 °FScattered clouds.10 mph22%29.86 "HgN/A
7:30 PM86 °FScattered clouds.10 mph20%29.86 "HgN/A
7:00 PM86 °FScattered clouds.5 mph27%29.86 "HgN/A
6:30 PM86 °FScattered clouds.6 mph27%29.86 "HgN/A
6:00 PM86 °FScattered clouds.6 mph27%29.86 "HgN/A
5:30 PM84 °FPartly sunny.5 mph31%29.86 "HgN/A
5:00 PM84 °FPartly sunny.6 mph33%29.89 "HgN/A
4:30 PM84 °FPartly sunny.5 mph31%29.89 "HgN/A
4:00 PM82 °FPartly sunny.5 mph35%29.89 "HgN/A
3:30 PM81 °FPartly sunny.5 mph37%29.89 "HgN/A
3:00 PM81 °FPartly sunny.5 mph39%29.89 "HgN/A
2:30 PM82 °FPartly sunny.3 mph35%29.92 "HgN/A
2:00 PM81 °FPartly sunny.5 mph37%29.92 "HgN/A
1:30 PM79 °FBroken clouds.7 mph42%29.92 "HgN/A
1:00 PM79 °FBroken clouds.5 mph42%29.95 "HgN/A
12:30 PM79 °FScattered clouds.5 mph42%29.95 "HgN/A
12:00 PM77 °FScattered clouds.7 mph42%29.95 "HgN/A
11:30 AM77 °FPassing clouds.9 mph44%29.95 "HgN/A
11:00 AM77 °FPassing clouds.9 mph44%29.95 "HgN/A
10:30 AM75 °FPassing clouds.9 mph47%29.95 "HgN/A
10:00 AM73 °FPassing clouds.10 mph50%29.95 "HgN/A
9:30 AM72 °FPassing clouds.10 mph57%29.95 "HgN/A
9:00 AM70 °FPassing clouds.10 mph60%29.95 "HgN/A
8:30 AM68 °FPassing clouds.13 mph69%29.95 "HgN/A
8:00 AM66 °FPassing clouds.12 mph73%29.95 "HgN/A
7:30 AM64 °FPassing clouds.15 mph78%29.95 "HgN/A
7:00 AM66 °FPartly cloudy.10 mph78%29.95 "HgN/A
6:30 AM68 °FSprinkles. Partly cloudy.6 mph69%29.95 "HgN/A
6:00 AM68 °FSprinkles. Partly cloudy.6 mph64%29.95 "HgN/A
5:30 AM70 °FPartly cloudy.3 mph57%29.95 "HgN/A
5:00 AM70 °FPartly cloudy.10 mph60%29.98 "HgN/A
4:30 AM70 °FPartly cloudy.16 mph60%30.01 "HgN/A
4:00 AM70 °FPartly cloudy.16 mph60%29.98 "HgN/A
3:30 AM72 °FPartly cloudy.16 mph53%29.98 "HgN/A
3:00 AM72 °FPartly cloudy.14 mph50%29.98 "HgN/A
2:30 AM72 °FPartly cloudy.14 mph53%29.98 "HgN/A
2:00 AM72 °FSprinkles. Partly cloudy.16 mph53%29.98 "HgN/A
1:30 AM75 °FThundershowers. Partly cloudy.14 mph41%29.98 "HgN/A
1:00 AM77 °FThundershowers. Partly cloudy.14 mph34%29.95 "HgN/A
12:30 AM77 °FThundershowers. Partly cloudy.10 mph30%29.95 "HgN/A
12:00 AM77 °FPassing clouds.7 mph30%29.95 "HgN/A
11:30 PM
Jul 30
77 °FPassing clouds.12 mph30%29.89 "HgN/A
11:00 PM75 °FPartly sunny.9 mph34%29.89 "HgN/A
10:30 PM75 °FPartly sunny.6 mph34%29.89 "HgN/A
10:00 PM77 °FPartly sunny.8 mph32%29.89 "HgN/A
9:30 PM79 °FScattered clouds.7 mph30%29.89 "HgN/A
9:00 PM82 °FPassing clouds.8 mph25%29.89 "HgN/A
Weather by CustomWeather, © 2014

See weather overviewHow to use our weather pages